Weather History for CWMQ - November, 2013

Change the Weather History Date:

Wednesday, November 13, 2013

  Actual Average Record
Temperature  
Mean Temperature 42 °F -  
Max Temperature 54 °F - - ()
Min Temperature 31 °F - - ()
Degree Days  
Heating Degree Days 22    
Moisture  
Dew Point 32 °F    
Average Humidity 58    
Maximum Humidity 87    
Minimum Humidity 38    
Precipitation  
Precipitation 0.00 in - - ()
Sea Level Pressure  
Sea Level Pressure 30.01 in    
Wind  
Wind Speed 11 mph ()    
Max Wind Speed 18 mph    
Max Gust Speed 31 mph    
T = Trace of Precipitation, MM = Missing Value Source: Averaged Metar Reports

Daily Weather History Graph

Daily Weather History Graph

Search for Another Location

Airport or City:

Trip Planner

Search our weather history database for the weather conditions in past years. The results will help you decide how hot, cold, wet, or windy it might be!

Date:

Astronomy

Nov. 13, 2013 Rise Set
Actual Time 8:27 AM CST 5:36 PM CST
Civil Twilight 7:52 AM CST 6:11 PM CST
Nautical Twilight 7:13 AM CST 6:50 PM CST
Astronomical Twilight 6:35 AM CST 7:28 PM CST
Moon 3:44 PM CST (11/13) 4:02 AM CST (11/13)
Length of Visible Light 10h 19m
Length of Day
9h 08m
Waxing Gibbous, 85% of the Moon is Illuminated
Nov 13
Waxing Gibbous
Nov 17
Full
Nov 25
Last Quarter
Dec 2
New
Dec 9
First Quarter

Hourly Weather History & Observations

Time (CST) Temp. Windchill Dew Point Humidity Pressure Visibility Wind Dir Wind Speed Gust Speed Precip Events Conditions
12:00 AM 53 °F - 36 °F 40% 29.99 in - West 17.3 mph - -  
12:00 AM 53.2 °F - 36.0 °F 52% 29.99 in - West 17.3 mph 25.3 mph N/A   Unknown
1:00 AM 51.1 °F - 35.4 °F 55% 30.01 in - West 17.3 mph 24.2 mph N/A   Unknown
2:00 AM 49.3 °F - 34.9 °F 58% 30.03 in - West 12.7 mph 19.6 mph N/A   Unknown
3:00 AM 47.7 °F - 34.0 °F 59% 30.03 in - West 15.0 mph 21.9 mph N/A   Unknown
4:00 AM 46.0 °F 40.6 °F 33.4 °F 61% 30.04 in - West 11.5 mph 19.6 mph N/A   Unknown
5:00 AM 45.0 °F 39.7 °F 31.3 °F 59% 30.04 in - West 10.4 mph 19.6 mph N/A   Unknown
6:00 AM 45 °F - 33 °F 51% 30.03 in - West 9.2 mph - -  
6:00 AM 45.3 °F 40.6 °F 32.9 °F 62% 30.03 in - West 9.2 mph - N/A   Unknown
7:00 AM 42.8 °F 38.0 °F 31.8 °F 65% 30.04 in - West 8.1 mph - N/A   Unknown
8:00 AM 38.7 °F 33.6 °F 31.1 °F 74% 30.04 in - SW 6.9 mph - N/A   Unknown
9:00 AM 42.8 °F 40.1 °F 32.9 °F 68% 30.04 in - West 4.6 mph - N/A   Unknown
10:00 AM 45.5 °F 41.8 °F 33.1 °F 62% 30.02 in - West 6.9 mph - N/A   Unknown
11:00 AM 47.8 °F - 31.3 °F 53% 30.00 in - West 8.1 mph - N/A   Unknown
12:00 PM 50 °F - 32 °F 38% 29.98 in - West 11.5 mph - -  
12:00 PM 50.2 °F - 31.6 °F 49% 29.98 in - West 11.5 mph 19.6 mph N/A   Unknown
1:00 PM 53.1 °F - 31.5 °F 44% 29.96 in - West 13.8 mph 21.9 mph N/A   Unknown
2:00 PM 52.2 °F - 31.6 °F 46% 29.93 in - West 18.4 mph 31.1 mph N/A   Unknown
3:00 PM 53.2 °F - 31.8 °F 44% 29.94 in - West 17.3 mph 25.3 mph N/A   Unknown
4:00 PM 51.3 °F - 31.3 °F 46% 29.96 in - WNW 12.7 mph 19.6 mph N/A   Unknown
5:00 PM 49.5 °F - 31.5 °F 50% 29.97 in - WNW 11.5 mph - N/A   Unknown
6:00 PM 46 °F - 31 °F 43% 30.00 in - WNW 5.8 mph - -  
6:00 PM 46.0 °F 43.1 °F 30.7 °F 55% 30.00 in - WNW 5.8 mph - N/A   Unknown
7:00 PM 42.8 °F 38.6 °F 30.6 °F 62% 30.03 in - NW 6.9 mph - N/A   Unknown
8:00 PM 39.2 °F 34.2 °F 30.2 °F 70% 30.04 in - West 6.9 mph - N/A   Unknown
9:00 PM 34.3 °F 29.2 °F 28.8 °F 80% 30.04 in - SSW 5.8 mph - N/A   Unknown
10:00 PM 31.1 °F 26.4 °F 27.7 °F 87% 30.05 in - SW 4.6 mph - N/A   Unknown
11:00 PM 31.8 °F 23.9 °F 28.4 °F 87% 30.03 in - SSW 9.2 mph - N/A   Unknown